Location: Newark
(54.7500°N, 9.9000°E)
Time: 05:12:57
(UTC+00:00)

Envisat - Visible Passes

Search period start: 24 January 2020 00:00
Search period end: 03 February 2020 00:00
Orbit: 764 x 766 km, 98.1° (Epoch: 23 January)

Date Brightness Start Highest point End Pass type
(mag) Time Alt. Az. Time Alt. Az. Time Alt. Az.
24 Jan 5.4 05:08:39 10° NE 05:12:50 25° E 05:17:00 10° SE visible
24 Jan 3.0 16:29:50 10° SSE 16:34:51 63° ENE 16:39:54 10° N visible
24 Jan 5.3 18:10:08 10° SW 18:14:18 25° W 18:18:29 10° NW visible
25 Jan 6.2 04:33:06 10° NE 04:35:32 13° E 04:37:58 10° ESE visible
25 Jan 3.4 06:10:25 10° NNE 06:15:31 71° ESE 06:20:36 10° S visible
25 Jan 4.2 17:32:20 10° S 17:37:13 46° W 17:42:08 10° NNW visible
26 Jan 4.6 05:33:48 10° NNE 05:38:34 38° E 05:43:17 10° SSE visible
26 Jan 3.1 16:55:13 10° SSE 17:00:19 86° WSW 17:05:27 10° NNW visible
26 Jan 5.9 18:36:58 10° SW 18:40:08 16° W 18:43:18 10° NW visible
27 Jan 5.7 04:57:36 10° NE 05:01:24 21° E 05:05:13 10° SE visible
27 Jan 3.0 06:35:55 10° NNE 06:41:01 76° WNW 06:46:06 10° SSW visible
27 Jan 3.2 16:18:40 10° SE 16:23:36 53° ENE 16:28:33 10° N visible
27 Jan 5.0 17:58:27 10° SSW 18:02:54 30° W 18:07:22 10° NNW visible
28 Jan 6.4 04:22:46 10° ENE 04:24:03 11° E 04:25:20 10° E visible
28 Jan 3.7 05:59:08 10° NNE 06:04:12 59° E 06:09:13 10° S visible
28 Jan 3.8 17:20:53 10° S 17:25:52 56° W 17:30:54 10° NNW visible
28 Jan 6.4 19:05:46 10° W 19:06:04 10° W 19:06:21 10° WNW visible
29 Jan 5.0 05:22:37 10° NNE 05:27:11 32° E 05:31:42 10° SSE visible
29 Jan 3.0 16:43:56 10° SSE 16:49:01 80° ENE 16:54:08 10° NNW visible
29 Jan 5.7 18:25:01 10° SW 18:28:41 20° W 18:32:22 10° NW visible
30 Jan 6.0 04:46:36 10° NE 04:49:59 17° E 04:53:19 10° SE visible
30 Jan 3.1 06:24:36 10° NNE 06:29:44 90° W 06:34:50 10° SSW visible
30 Jan 4.7 17:46:51 10° SSW 17:51:30 36° W 17:56:12 10° NNW visible
31 Jan 4.1 05:47:53 10° NNE 05:52:51 49° E 05:57:46 10° S visible
31 Jan 3.4 17:09:28 10° S 17:14:32 67° WSW 17:19:38 10° NNW visible
31 Jan 6.3 18:52:25 10° WSW 18:54:34 12° W 18:56:42 10° WNW visible
01 Feb 5.3 05:11:29 10° NE 05:15:47 27° E 05:20:03 10° SSE visible
01 Feb 3.0 16:32:42 10° SSE 16:37:45 67° ENE 16:42:49 10° NNW visible
01 Feb 5.5 18:13:12 10° SW 18:17:15 23° W 18:21:19 10° NW visible
02 Feb 6.2 04:35:45 10° NE 04:38:30 14° E 04:41:14 10° ESE visible
02 Feb 3.3 06:13:18 10° NNE 06:18:26 76° ESE 06:23:31 10° S visible
02 Feb 4.3 17:35:18 10° S 17:40:08 43° W 17:45:00 10° NNW visible
